W0ANA Weather Reports


time (UTC)temp
C
wind
direction
speed
KPH
gust
KPH
rain 1hr
cm
rain 24hr
cm
rain mn
cm
humidity
%
barometer
mb
20260906173032 26 65 3.2 11.3 0.00 0.00 0.00 71 1016.5
20260906171529 26 68 3.2 9.7 0.00 0.00 0.00 71 1016.6
20260906170028 26 181 1.6 8.0 0.00 0.00 0.00 73 1016.8
20260906164535 25 110 1.6 8.0 0.00 0.00 0.00 76 1016.8
20260906163025 25 71 0.0 6.4 0.00 0.00 0.00 77 1017.0
20260906161519 24 75 1.6 8.0 0.00 0.00 0.00 80 1017.0
20260906160019 24 191 3.2 11.3 0.00 0.00 0.00 80 1017.5
20260906154516 23 98 1.6 11.3 0.00 0.00 0.00 81 1017.1
20260906153022 23 70 1.6 9.7 0.00 0.00 0.00 85 1017.4
20260906151510 22 146 4.8 12.9 0.00 0.00 0.00 85 1017.6
20260906150007 22 59 0.0 6.4 0.00 0.00 0.00 87 1017.2
20260906144505 22 116 1.6 8.0 0.00 0.00 0.00 87 1017.3
20260906143103 22 83 0.0 4.8 0.00 0.00 0.00 90 1017.2
20260906141604 21 113 1.6 8.0 0.00 0.00 0.00 91 1017.3
20260906140056 21 80 0.0 4.8 0.00 0.00 0.00 93 1017.3
20260906134602 21 83 0.0 3.2 0.00 0.00 0.00 95 1017.2
20260906133055 20 39 0.0 4.8 0.00 0.00 0.00 96 1016.9
20260906131553 20 71 0.0 1.6 0.00 0.00 0.00 97 1017.0
20260906130108 19 82 0.0 0.0 0.00 0.00 0.00 97 1016.9
20260906124550 19 85 0.0 0.0 0.00 0.00 0.00 97 1017.0
20260906123051 18 77 0.0 0.0 0.00 0.00 0.00 97 1017.0
20260906121558 18 77 0.0 0.0 0.00 0.00 0.00 97 1016.8
20260906120050 18 77 0.0 0.0 0.00 0.00 0.00 96 1016.7
20260906114544 18 77 0.0 0.0 0.00 0.00 0.00 96 1016.6
20260906113050 18 77 0.0 0.0 0.00 0.00 0.00 96 1016.6
20260906111541 18 76 0.0 0.0 0.00 0.00 0.00 96 1016.4
20260906110040 18 77 0.0 0.0 0.00 0.00 0.00 96 1016.3
20260906104538 19 76 0.0 0.0 0.00 0.00 0.00 95 1016.2
20260906103049 19 77 0.0 0.0 0.00 0.00 0.00 95 1016.2
20260906101535 19 77 0.0 0.0 0.00 0.00 0.00 95 1016.1
20260906100035 19 77 0.0 0.0 0.00 0.00 0.00 95 1016.0
20260906094531 20 82 0.0 0.0 0.00 0.00 0.00 95 1015.5
20260906091528 20 85 0.0 0.0 0.00 0.00 0.00 94 1015.5
20260906090029 20 85 0.0 0.0 0.00 0.00 0.00 94 1015.4
20260906084528 20 86 0.0 0.0 0.00 0.00 0.00 94 1015.4
20260906083028 20 84 0.0 0.0 0.00 0.00 0.00 93 1015.4
20260906081526 20 86 0.0 0.0 0.00 0.00 0.00 93 1015.5
20260906080028 20 85 0.0 0.0 0.00 0.00 0.00 92 1015.5
20260906074523 20 85 0.0 0.0 0.00 0.00 0.00 92 1015.5
20260906073021 20 86 0.0 0.0 0.00 0.00 0.00 92 1015.5
20260906071518 20 86 0.0 0.0 0.00 0.00 0.00 91 1015.7
20260906070018 21 86 0.0 0.0 0.00 0.00 0.00 91 1015.7
20260906064526 21 86 0.0 0.0 0.00 0.00 0.00 91 1015.9
20260906063016 20 86 0.0 0.0 0.00 0.00 0.00 91 1015.9
20260906061523 20 86 0.0 0.0 0.00 0.00 0.00 91 1015.7
20260906060014 20 188 0.0 0.0 0.00 0.00 0.00 90 1015.8
20260906054524 21 188 0.0 0.0 0.00 0.00 0.00 89 1015.8
20260906053010 21 188 0.0 0.0 0.00 0.00 0.00 88 1015.8
20260906051506 21 188 0.0 0.0 0.00 0.00 0.00 88 1015.9
20260906050004 21 188 0.0 0.0 0.00 0.00 0.00 86 1015.7
20260906044503 22 188 0.0 0.0 0.00 0.00 0.00 85 1015.8
20260906043013 22 188 0.0 0.0 0.00 0.00 0.00 85 1015.9
20260906041504 22 188 0.0 0.0 0.00 0.00 0.00 84 1016.0
20260906040002 22 193 0.0 0.0 0.00 0.00 0.00 83 1015.8
20260906034502 22 148 0.0 0.0 0.00 0.00 0.00 83 1015.9
20260906033001 22 84 0.0 0.0 0.00 0.00 0.00 82 1016.1
20260906031600 23 84 0.0 0.0 0.00 0.00 0.00 81 1016.1
20260906030100 23 84 0.0 0.0 0.00 0.00 0.00 80 1016.1
20260906024559 23 86 0.0 0.0 0.00 0.00 0.00 81 1016.2
20260906023107 23 86 0.0 0.0 0.00 0.00 0.00 81 1016.0
20260906021558 23 86 0.0 0.0 0.00 0.00 0.00 80 1015.8
20260906020100 23 86 0.0 0.0 0.00 0.00 0.00 78 1015.1
20260906014605 24 86 0.0 0.0 0.00 0.00 0.00 76 1014.8
20260906013058 25 86 0.0 1.6 0.00 0.00 0.00 74 1014.4
20260906011605 25 89 0.0 1.6 0.00 0.00 0.00 74 1014.2
20260906010056 25 88 0.0 3.2 0.00 0.00 0.00 73 1013.7
20260906004556 26 77 0.0 4.8 0.00 0.00 0.00 71 1013.5
20260906003055 26 78 0.0 3.2 0.00 0.00 0.00 69 1013.3
20260906001554 27 80 0.0 4.8 0.00 0.00 0.00 68 1012.9
20260906000054 27 104 0.0 4.8 0.00 0.00 0.00 66 1013.2
20260905234554 27 203 0.0 3.2 0.00 0.00 0.00 65 1013.3
20260905233057 28 71 0.0 4.8 0.00 0.00 0.00 65 1013.2
20260905231551 28 79 0.0 4.8 0.00 0.00 0.00 63 1013.2
20260905230051 29 275 0.0 3.2 0.00 0.00 0.00 63 1012.8
20260905224551 29 71 0.0 4.8 0.00 0.00 0.00 63 1012.7
20260905223051 30 58 0.0 6.4 0.00 0.00 0.00 61 1013.0
20260905221547 30 45 0.0 4.8 0.00 0.00 0.00 60 1013.2
20260905220046 30 63 0.0 1.6 0.00 0.00 0.00 61 1013.3
20260905214545 30 94 0.0 3.2 0.00 0.00 0.00 61 1013.1
20260905213044 30 63 0.0 8.0 0.00 0.00 0.00 60 1013.2
20260905211543 30 91 0.0 3.2 0.00 0.00 0.00 59 1013.6
20260905210041 31 79 0.0 1.6 0.00 0.00 0.00 61 1013.9
20260905204540 30 184 0.0 3.2 0.00 0.00 0.00 62 1014.2
20260905203037 30 360 0.0 3.2 0.00 0.00 0.00 63 1014.4
20260905201535 30 65 0.0 1.6 0.00 0.00 0.00 64 1014.8
20260905200035 29 66 0.0 1.6 0.00 0.00 0.00 65 1015.1
20260905194531 29 63 0.0 3.2 0.00 0.00 0.00 64 1015.2
20260905193029 28 40 0.0 1.6 0.00 0.00 0.00 68 1015.3
20260905191531 28 11 0.0 3.2 0.00 0.00 0.00 70 1015.4
20260905190029 27 75 0.0 6.4 0.00 0.00 0.00 71 1015.4
20260905184522 27 127 0.0 1.6 0.00 0.00 0.00 73 1015.5
20260905183015 26 180 1.6 6.4 0.00 0.00 0.00 73 1015.6
20260905181510 25 25 0.0 1.6 0.00 0.00 0.00 79 1015.7
20260905180008 25 91 0.0 4.8 0.00 0.00 0.00 80 1015.9
20260905174504 24 104 0.0 6.4 0.00 0.00 0.00 82 1015.9